Flag for Norway Weather past 2 weeks in Leirvik, Norway

Now
36 °F

Chilly.


Feels Like: 30 °F
Forecast: 35 / 43 °F
Wind: 7 mph from Southeast

Location: Slatteroy Fyr

Current Time: Mar 4, 2015 at 1:51:45 AM

Latest Report: Mar 4, 2015 at 1:00 AM


Visibility: N/A

Pressure: 29.62 "Hg

Humidity: 89%

Dew point: 33 °F

Location of LeirvikLocation

Historic Weather in Leirvik — Graph

°F

Leirvik temperature yesterday

Maximum temperature yesterday: 40 °F (at 12:00 AM)
Minimum temperature yesterday: 35 °F (at 8:00 AM)
Average temperature yesterday: 37 °F

Past Weeks' High & Low Weather Summary

 TemperatureHumidityPressure
High46 °F (Feb 18, 4:00 PM)94% (Feb 18, 10:00 AM)30.19 "Hg (Feb 18, 10:00 AM)
Low35 °F (Feb 22, 10:00 PM)61% (Feb 22, 2:00 PM)28.58 "Hg (Feb 23, 7:00 AM)
Average41 °F84%29.41 "Hg
* Reported Midnight between Feb 16 and Feb 17 — Midnight between Mar 3 and Mar 4, Leirvik, Weather by CustomWeather, © 2015

Note: Actual official high and low records may vary slightly from our data, if they occured in-between our weather recording intervals... More about our weather records

Advertising

Leirvik weather history for previous 24 hours

 ConditionsComfort  
Time TempWeatherWind HumidityBarometerVisibility
12:00 AM
Wed, Mar 4
36 °FChilly.7 mph90%29.61 "HgN/A
11:00 PM
Tue, Mar 3
36 °FChilly.7 mph90%29.60 "HgN/A
10:00 PM35 °FChilly.8 mph90%29.59 "HgN/A
9:00 PM35 °FChilly.8 mph89%29.59 "HgN/A
8:00 PM35 °FChilly.7 mph87%29.58 "HgN/A
7:00 PM36 °FChilly.6 mph87%29.57 "HgN/A
6:00 PM36 °FChilly.6 mph86%29.56 "HgN/A
5:00 PM37 °FChilly.6 mph83%29.55 "HgN/A
4:00 PM38 °FChilly.5 mph82%29.54 "HgN/A
3:00 PM39 °FChilly.9 mph81%29.53 "HgN/A
2:00 PM37 °FChilly.8 mph83%29.50 "HgN/A
1:00 PM38 °FChilly.8 mph88%29.50 "HgN/A
12:00 PM37 °FChilly.7 mph86%29.50 "HgN/A
11:00 AM38 °FChilly.7 mph83%29.47 "HgN/A
10:00 AM37 °FChilly.7 mph87%29.47 "HgN/A
9:00 AM36 °FChilly.6 mph88%29.47 "HgN/A
8:00 AM35 °FChilly.6 mph88%29.44 "HgN/A
7:00 AM36 °FChilly.6 mph87%29.44 "HgN/A
6:00 AM37 °FChilly.5 mph86%29.44 "HgN/A
5:00 AM37 °FChilly.5 mph85%29.41 "HgN/A
4:00 AM38 °FChilly.6 mph82%29.41 "HgN/A
3:00 AM39 °FChilly.9 mph84%29.41 "HgN/A
2:00 AM39 °FChilly.12 mph83%29.38 "HgN/A
1:00 AM40 °FChilly.8 mph83%29.38 "HgN/A
Weather by CustomWeather, © 2015

See weather overviewHow to use our weather pages